Regional Weather Roundup
Issued by NWS

Home | Current Version | Previous Version | Graphics & Text | Print | Product List | Glossary On
Versions: 1 2 3 4 5 6 7 8 9 10 11 12 13 14 15 16 17 18 19 20 21 22 23 24 25 26 27
000
ASUS45 KTFX 271210
RWRMT
MONTANA REGIONAL WEATHER ROUNDUP
NATIONAL WEATHER SERVICE GREAT FALLS MT
600 AM MDT TUE SEP 27 2016

NOTE: "FAIR" INDICATES FEW OR NO CLOUDS BELOW 12000 FEET WITH NO
SIGNIFICANT WEATHER AND/OR OBSTRUCTIONS TO VISIBILITY.

MTZ001>007-043-271300-
WEST OF THE DIVIDE

CITY           SKY/WX    TMP DP  RH WIND       PRES   REMARKS
KALISPELL      CLEAR     35  35 100 CALM      30.06S FOG
MISSOULA       CLEAR     44  42  93 CALM      30.14S
BUTTE          CLEAR     37  34  89 SE5       30.24S
MULLAN PASS    CLEAR     57  38  48 S7        30.19S
ANACONDA         N/A     48  36  61 S6        30.18F
DEER LODGE       N/A     43  36  75 CALM      30.20S
EUREKA           N/A     52  43  71 E5        30.01F
HAMILTON         N/A     48  39  71 CALM      30.14S
LIBBY            N/A     43  41  93 CALM      30.03F
PLAINS           N/A     41  36  82 CALM      30.06
RONAN            N/A     42  39  89 CALM      30.10S
$$

MTZ008-052>055-271300-
SOUTHWEST MONTANA

CITY           SKY/WX    TMP DP  RH WIND       PRES   REMARKS
BOZEMAN        CLEAR     41  36  82 CALM      30.19S
DILLON         CLEAR     52  36  54 S14       30.23S
W YELLOWSTONE    N/A     28  28 100 CALM      30.37S
ENNIS          CLEAR     50  36  57 S7        30.28S
THREE FORKS      N/A     40  21  46 CALM      30.15S
TWIN BRIDGES     N/A     43  33  67 E3        30.19S
$$

MTZ009-010-012-014-046-048-049-054-271300-
EAST SLOPES AND CENTRAL MONTANA

CITY           SKY/WX    TMP DP  RH WIND       PRES   REMARKS
CUT BANK       CLEAR     53  41  63 SW6       30.00F
GREAT FALLS    CLEAR     58  40  51 S13       30.04S
MALMSTROM AFB  CLEAR     54  41  61 SW9       30.03S
HELENA         CLEAR     47  40  76 CALM      30.13S
AUGUSTA          N/A     55  38  51 S6        30.07S
BOWMANS CRNR     N/A     55  40  57 S15       30.07S
CHOTEAU          N/A     54  39  58 S9        30.05S
CONRAD           N/A     47  43  86 S5        30.03S
FAIRFIELD        N/A     56  40  53 SW6       30.04S
POWER            N/A     47  39  72 W5        30.03S
RAYNESFORD       N/A     66  37  33 SW15G23   30.06F
$$

MTZ011-013-016-021-045-047-050-051-271300-
NORTH CENTRAL MONTANA

CITY           SKY/WX    TMP DP  RH WIND       PRES   REMARKS
HAVRE          CLEAR     51  43  74 SW13      29.95F
LEWISTOWN      CLEAR     47  38  71 E7        30.08S
N BAR RANCH      N/A     46  37  71 CALM      30.12S
CHINOOK          N/A     39  39 100 CALM      29.96S
DENTON           N/A     49  40  71 S13       30.00F
GEYSER           N/A     55  38  51 S6        30.07S
GRASS RANGE      N/A     56  39  52 W2        30.03S
JUDITH GAP       N/A     50  38  61 N3        30.12R
ROY              N/A     57  42  58 MISG      30.02S
STANFORD         N/A     61  36  38 W6        30.08S
WINIFRED         N/A     61  39  44 MISG      30.03S
$$

MTZ017>020-022>027-061-062-271300-
NORTHEAST MONTANA

CITY           SKY/WX    TMP DP  RH WIND       PRES   REMARKS
GLASGOW        CLEAR     45  41  86 E8        29.97S
JORDAN           N/A     40  38  93 W6        29.99F
SIDNEY         CLEAR     40  38  93 S5        30.01S
WOLF POINT     CLEAR     41  39  93 E6        29.99S
POPLAR           N/A     39  37  93 CALM      29.99S
SCOBEY           N/A     36  29  76 CALM      29.96F
$$

MTZ028>42-056>058-271300-
SOUTHCENTRAL AND SOUTHEAST MONTANA

CITY           SKY/WX    TMP DP  RH WIND       PRES   REMARKS
BAKER          CLEAR     42  39  89 SE5       30.05F
BILLINGS       CLEAR     60  43  53 SW20      30.08S
LIVINGSTON     CLEAR     45  37  73 NW17      30.17R
MILES CITY     CLEAR     47  44  90 SE7       30.03S
EKALAKA          N/A     53  42  66 SE1       30.04F
FORSYTH          N/A     48  48 100 CALM      30.03S
HARLOWTON        N/A     49  40  70 W12       30.11F
LAUREL           N/A     53  41  64 S2        30.08S
ROUNDUP          N/A     52  43  71 S12       29.98S
$$

REGIONAL REPORTS...DAKOTAS

CITY           SKY/WX    TMP DP  RH WIND       PRES   REMARKS
WILLISTON      CLOUDY    37  35  92 CALM      30.01F
MINOT          CLEAR     42  35  76 SW6       30.01S
DICKINSON      CLEAR     40  37  89 W5        30.01F
CROSBY           N/A     41  41 100 S9        30.03S
WATFORD CITY     N/A     37  37 100 CALM      30.02S
BISMARCK       CLEAR     40  36  86 W5        30.03S
GRAND FORKS    CLEAR     42  37  82 W8        29.91R
FARGO          CLEAR     40  35  83 W10       29.92S
BUFFALO SD       N/A     43  40  89 W3        30.00F
RAPID CITY     CLEAR     40  38  93 W6        30.09F
$$

REGIONAL REPORTS...WYOMING/IDAHO/WASHINGTON

CITY           SKY/WX    TMP DP  RH WIND       PRES   REMARKS
GILLETTE       CLEAR     54  41  61 CALM      30.13S
SHERIDAN       CLEAR     43  36  76 W3        30.11S
BUFFALO WY     CLEAR     57  31  37 W10       30.17S
CODY           CLEAR     47  42  83 SE3       30.21S
YELLOWSTONE LA   N/A     29  29 100 NW3       30.43S
IDAHO FALLS    CLOUDY    41  39  93 CALM      30.25S
SALMON         CLEAR     39  37  93 CALM      30.23F
BOISE          CLEAR     55  43  63 E6        30.11S
SPOKANE        CLEAR     59  43  55 SE10      30.01S
$$

REGIONAL REPORTS...ALBERTA

CITY           SKY/WX    TMP DP  RH WIND       PRES   REMARKS
EDMONTON       CLEAR     54  41  62 NW7       29.80R
CALGARY        PTCLDY    54  41  62 SW5       29.85S
LETHBRIDGE     CLEAR     57  43  58 S15       29.91F
MEDICINE HAT   CLEAR     50  43  76 SW8       29.85S
WATERTON GATE    N/A     63  41  45 SW9         N/A
MILK RIVER       N/A     43  39  87 N6          N/A
$$

REGIONAL REPORTS...SASKATCHEWAN

CITY           SKY/WX    TMP DP  RH WIND       PRES   REMARKS
SWIFT CURRENT  CLEAR     48  43  81 SW8       29.88F
REGINA         CLEAR     41  36  81 SE10      29.96F
SASKATOON      CLEAR     46  39  76 SE12      29.89F
CYPRESS HILLS    N/A     52  37  58 SW3         N/A
VAL MARIE        N/A     36  36 100 E3          N/A
ROCKGLEN         N/A     48  43  81 S10         N/A
ASSINIBOIA       N/A     45  41  87 S6          N/A
$$




USA.gov is the U.S. government's official web portal to all federal, state and local government web resources and services.